Terminal Aerodrome Forecast
Issued by NWS Louisville, KY

Home | Current Version | Previous Version | Text Only | Print | Product List | Glossary On
Versions: 1 2 3 4 5 6 7 8 9 10 11 12 13 14 15 16 17 18 19
544
FTUS43 KLMK 260815 AAA
TAFLEX
TAF AMD
KLEX 260815Z 2608/2706 20005KT P6SM SCT060 BKN100
      TEMPO 2608/2610 4SM SHRA BKN060
     FM261400 19011KT P6SM BKN050
     FM262000 21013KT P6SM SCT050
     FM270300 16004KT P6SM SCT200=

USA.gov is the U.S. government's official web portal to all federal, state and local government web resources and services.